This is the latest recevied weather packets stored in our database for station/object YS1AHL-28. If no packets are shown the sender has not sent any weather packets the latest 10 day(s).
| Time | Temp. | Humidity | Pressure | Rain* | Wind** | Luminosity | Snow |
|---|---|---|---|---|---|---|---|
| 1787672474 | 21.11° C | 68% | 1013 hPa | 0 mm | - | - | - |
| 1787671934 | 20.56° C | 67% | 1013 hPa | 0 mm | - | - | - |
| 1787671874 | 20.56° C | 67% | 1013 hPa | 0 mm | - | - | - |
| 1787671333 | 19.44° C | 74% | 1013 hPa | 0 mm | - | - | - |
| 1787671273 | 19.44° C | 74% | 1013 hPa | 0 mm | - | - | - |
| 1787670733 | 19.44° C | 74% | 1013 hPa | 0 mm | - | - | - |
| 1787670672 | 19.44° C | 74% | 1013 hPa | 0 mm | - | - | - |
| 1787670132 | 18.89° C | 74% | 1013 hPa | 0 mm | - | - | - |
| 1787670072 | 18.89° C | 74% | 1013 hPa | 0 mm | - | - | - |
| 1787669531 | 19.44° C | 74% | 1013 hPa | 0 mm | - | - | - |
| 1787669471 | 19.44° C | 74% | 1013 hPa | 0 mm | - | - | - |
| 1787668930 | 19.44° C | 77% | 1013 hPa | 0 mm | - | - | - |
| 1787668870 | 19.44° C | 77% | 1013 hPa | 0 mm | - | - | - |
| 1787668330 | 18.33° C | 78% | 1013 hPa | 0 mm | - | - | - |
| 1787668269 | 18.33° C | 78% | 1013 hPa | 0 mm | - | - | - |
| 1787667729 | 18.33° C | 80% | 1013 hPa | 0 mm | - | - | - |
| 1787667669 | 18.33° C | 80% | 1013 hPa | 0 mm | - | - | - |
| 1787667128 | 18.89° C | 81% | 1013 hPa | 0 mm | - | - | - |
| 1787667068 | 18.89° C | 81% | 1013 hPa | 0 mm | - | - | - |
| 1787666527 | 18.89° C | 82% | 1013 hPa | 0 mm | - | - | - |
| 1787666467 | 18.89° C | 82% | 1013 hPa | 0 mm | - | - | - |
| 1787665927 | 18.33° C | 84% | 1013 hPa | 0 mm | - | - | - |
| 1787665867 | 18.33° C | 84% | 1013 hPa | 0 mm | - | - | - |
| 1787665326 | 18.33° C | 84% | 1013 hPa | 0 mm | - | - | - |
| 1787665266 | 18.33° C | 84% | 1013 hPa | 0 mm | - | - | - |
* Rain latest hour (hover to see other rain measurements)
** Current wind speed in m/s (hover to see current wind gust speed)